Terug naar catalogus

STARLINK-37015

ActiefCommunicatieSSO
NORAD 68825·PAYLOAD·🇺🇸 United States

Gelanceerd Apr 23, 2026 vanaf Vandenberg Space Force Base

Loading…

Volgende Passages (komende 24 uur)

TLE

VersSource: CelesTrak SupGP

Epoch: Sep 15, 2026, 03:03 UTC

1 68825C 26089Z   26258.12756944 -.00026918  00000+0 -83552-3 0  2586
2 68825  97.2846 104.0330 0002170  90.7788 137.4928 15.33454495    15

Volg STARLINK-37015 in realtime met AllMySat

Download on the App Store